Location: Chilham
(51.2333°N, 0.9667°E)
Time: 04:26:33
(UTC+00:00)

Daily predictions for brighter satellites

Satellite Brightness Start Highest point End
(mag) Time Altitude Azimuth Time Altitude Azimuth Time Altitude Azimuth
Aureole 3 3.0 00:01:37 10° NNW 00:05:14 60° W 00:05:56 46° SSW
Cosmos 1707 3.7 00:03:38 25° SW 00:05:23 40° WNW 00:09:05 10° N
STARLINK-1197 3.8 00:02:27 10° WNW 00:06:37 75° NNE 00:10:46 10° E
Cosmos 1340 Rocket 3.2 00:03:30 10° NNW 00:07:25 50° W 00:08:46 34° SSW
Cosmos 2266 Rocket 4.0 00:03:50 26° SSW 00:07:28 78° WNW 00:13:33 10° N
PSLV R/B 4.3 00:03:17 10° NNE 00:07:44 46° E 00:09:38 29° SSE
Cosmos 1354 Rocket 4.4 00:02:41 10° NNW 00:07:49 52° WSW 00:10:11 30° SSW
Cosmos 1953 3.1 00:04:54 10° NNW 00:08:39 38° W 00:09:56 29° SW
STARLINK-1236 3.9 00:04:36 10° W 00:08:45 70° N 00:12:54 10° ENE
Cosmos 1867 3.6 00:05:36 10° NW 00:11:00 62° SW 00:13:53 27° SSE
STARLINK-1198 3.7 00:07:27 10° WNW 00:11:37 76° N 00:15:47 10° E
Timation 2 Rocket 4.2 00:05:19 10° NNW 00:11:45 71° NE 00:17:13 13° SE
Cosmos 1025 Rocket 4.1 00:11:41 21° SW 00:13:58 35° WNW 00:17:56 10° N
Cosmos 1892 Rocket 4.2 00:12:32 28° SSE 00:14:26 47° E 00:18:40 10° NNE
Cosmos 2297 Rocket 3.6 00:11:05 10° NNW 00:16:18 36° NE 00:21:29 10° ESE
STARLINK-1199 3.7 00:12:25 10° WNW 00:16:35 78° NNE 00:20:44 10° E
STARLINK-1269 3.9 00:14:33 10° W 00:18:42 68° N 00:22:51 10° E
Cosmos 1674 2.5 00:17:42 41° S 00:18:56 90° E 00:22:44 10° N
Lacrosse 4 Rocket 4.4 00:16:23 10° NNW 00:19:15 17° NNE 00:22:05 10° ENE
Cosmos 1726 Rocket 3.4 00:15:56 10° N 00:20:17 89° W 00:22:11 33° S
SL-16 R/B 3.9 00:14:58 10° ESE 00:20:28 36° ENE 00:26:00 10° N
STARLINK-60 3.9 00:21:09 31° ESE 00:21:09 31° ESE 00:23:31 10° E
STARLINK-1210 3.7 00:17:25 10° WNW 00:21:35 80° NNE 00:25:45 10° E
COSMOS 2455 3.0 00:18:54 27° S 00:22:07 61° ESE 00:28:03 10° NE
STARLINK-1200 3.9 00:19:34 10° W 00:23:43 68° N 00:27:52 10° E
STARLINK-1219 3.6 00:22:23 10° WNW 00:26:34 82° NNE 00:30:43 10° ESE
STARLINK-1192 3.9 00:24:34 10° W 00:28:43 67° N 00:32:52 10° E
Cosmos 1437 4.4 00:28:12 19° ESE 00:28:56 21° E 00:31:19 10° NE
STARLINK-1211 3.6 00:27:22 10° WNW 00:31:33 85° NNE 00:35:43 10° ESE
Cosmos 2098 Rocket 4.4 00:27:44 25° SSW 00:32:08 79° WNW 00:39:40 10° N
EO 1 Delta rocket 4.4 00:26:45 10° N 00:33:12 74° WNW 00:36:14 26° SSW
STARLINK-1244 4.0 00:29:33 10° W 00:33:42 67° N 00:37:51 10° E
Meteor 1-29 3.3 00:32:16 10° NNE 00:35:37 53° E 00:36:37 37° SSE
STARLINK-1245 3.6 00:32:21 10° WNW 00:36:32 87° NNE 00:40:41 10° ESE
SL-4 R/B 2.7 00:35:31 30° SSW 00:37:31 47° SSE 00:42:06 10° ENE
Cosmos 2228 3.4 00:34:30 10° NNW 00:38:37 48° W 00:40:15 31° SSW
STARLINK-1138 4.0 00:34:32 10° W 00:38:40 67° N 00:42:49 10° E
CZ-4 R/B 3.8 00:34:39 10° NNE 00:39:31 85° WNW 00:41:59 29° SSW
STARLINK-1233 3.5 00:37:20 10° WNW 00:41:30 90° S 00:45:40 10° ESE
CZ-2D R/B 3.7 00:39:14 10° NE 00:43:30 25° E 00:47:17 12° SE
STARLINK-1143 4.0 00:39:32 10° W 00:43:39 67° N 00:47:48 10° E
Cosmos 2315 Rocket 4.5 00:38:17 10° NNW 00:44:11 47° W 00:47:42 23° SSW
SJ 16-02 3.0 00:40:32 10° N 00:44:34 33° ENE 00:48:34 10° ESE
COSMOS 2487 3.7 00:42:00 10° NW 00:44:57 26° WSW 00:45:19 25° WSW
Cosmos 1174 3.3 00:44:39 42° SSW 00:45:40 80° SE 00:49:29 10° NE
STARLINK-1204 3.5 00:42:19 10° WNW 00:46:30 87° SSW 00:50:39 10° ESE
Resurs 1-4 Rocket 3.6 00:42:09 10° NE 00:46:37 27° E 00:50:27 13° SE
Cosmos 1908 4.2 00:44:02 10° NNW 00:47:29 32° W 00:48:37 27° SW
STARLINK-1203 4.0 00:43:36 10° W 00:47:48 68° N 00:52:00 10° E
STARLINK-1241 3.9 00:44:32 10° W 00:48:40 68° N 00:52:48 10° E
Cosmos 921 Rocket 3.5 00:47:04 27° SSE 00:49:00 47° ESE 00:53:10 10° NNE
ERBS 4.4 00:46:11 10° WNW 00:49:10 29° N 00:52:09 10° ENE
STARLINK-29 3.9 00:49:32 31° SE 00:49:32 31° SE 00:52:16 10° E
Cosmos 2058 Rocket 3.1 00:45:03 10° NNW 00:49:29 71° W 00:51:37 30° S
STARLINK-1238 3.5 00:47:19 10° WNW 00:51:29 84° SSW 00:55:38 10° ESE
Cosmos 2227 Rocket 3.0 00:46:54 10° NNW 00:52:29 52° NE 00:58:01 10° SE
STARLINK-1239 3.9 00:49:31 10° W 00:53:40 68° N 00:57:48 10° E
Cosmos 2369 Rocket 3.6 00:50:30 10° WSW 00:55:34 32° NW 01:00:39 10° NNE
STARLINK-1201 3.5 00:52:18 10° WNW 00:56:28 81° SSW 01:00:37 10° ESE
BREEZE-M R/B 4.1 00:56:15 26° S 00:57:02 27° SSE 01:00:03 10° E
Cosmos 1943 Rocket 4.0 00:54:02 10° W 00:58:37 25° NW 01:03:15 10° NNE
STARLINK-1240 3.9 00:54:31 10° W 00:58:40 69° N 01:02:48 10° E
Cosmos 1726 4.4 00:57:31 10° WNW 00:59:07 12° W 01:00:11 11° WSW
FALCON 9 R/B 3.9 00:57:53 22° S 01:00:46 27° SSE 01:14:14 10° ESE
STARLINK-1206 3.5 00:57:16 10° WNW 01:01:25 77° SSW 01:05:34 10° ESE
GEOS 3 Rocket 3.7 00:58:31 17° SSE 01:02:30 58° SW 01:07:44 10° NW
SL-19 R/B 4.3 00:57:59 10° NNE 01:03:24 73° ESE 01:07:01 23° S
STARLINK-1216 3.9 00:59:29 10° W 01:03:38 69° N 01:07:47 10° E
ATLAS CENTAUR R/B 1.4 01:01:34 25° SW 01:04:01 83° NW 01:08:06 10° NE
Cosmos 1626 Rocket 4.0 01:02:56 23° SSE 01:05:23 55° E 01:09:39 10° NNE
Meteor 1-24 Rocket 3.6 01:03:03 25° SSW 01:06:14 80° WNW 01:11:42 10° N
STARLINK-1205 3.5 01:02:15 10° WNW 01:06:24 74° SSW 01:10:33 10° ESE
Meteor 2-16 Rocket 4.5 01:02:28 23° S 01:06:33 83° E 01:12:42 10° NNE
Okean 1-7 Rocket 3.7 01:05:06 27° SSW 01:07:26 66° WNW 01:11:57 10° N
Cosmos 220 Rocket 4.4 01:06:00 26° S 01:08:17 56° ESE 01:12:39 10° NNE
STARLINK-1237 3.9 01:04:29 10° WNW 01:08:37 70° N 01:12:46 10° E
STARLINK-1218 3.5 01:07:13 10° WNW 01:11:22 71° SSW 01:15:29 10° ESE
Meteor 2-10 Rocket 4.2 01:06:22 10° N 01:11:37 52° ENE 01:16:38 10° SSE
STARLINK-1212 4.4 01:09:25 10° W 01:10:58 22° WSW 01:10:58 22° WSW
STARLINK-1105 4.4 01:09:54 10° W 01:11:21 21° WSW 01:11:21 21° WSW
STARLINK-1247 4.4 01:10:45 10° W 01:12:18 22° WSW 01:12:18 22° WSW
CZ-4C R/B 4.1 01:10:25 10° SSE 01:13:37 17° ESE 01:17:09 10° ENE
STARLINK-1202 3.9 01:09:29 10° WNW 01:13:38 71° N 01:17:47 10° E
FALCON 9 DEB 4.0 01:13:20 30° S 01:13:57 33° SSE 01:17:06 10° E
STARLINK-1227 4.5 01:11:14 10° W 01:12:39 21° WSW 01:12:39 21° WSW
STARLINK-1226 4.4 01:12:08 10° W 01:13:37 21° WSW 01:13:37 21° WSW
STARLINK-1215 4.5 01:13:01 10° W 01:14:29 21° WSW 01:14:29 21° WSW
STARLINK-1254 3.5 01:12:13 10° WNW 01:16:20 67° SSW 01:20:27 10° ESE
RESURS DK-1 2.3 01:15:35 27° SSW 01:17:45 88° ESE 01:21:56 10° NNE
STARLINK-1231 3.5 01:17:12 10° WNW 01:21:19 64° SSW 01:25:25 10° SE
ATLAS 3B R/B 3.3 01:15:33 10° NW 01:21:40 37° WSW 01:25:57 19° S
NOSS 3-4 (A) 3.9 01:17:13 11° WSW 01:22:54 60° NW 01:29:23 10° NE
NOSS 3-4 (C) 3.9 01:17:20 12° WSW 01:22:59 61° NW 01:29:30 10° NE
CENTAUR R/B 4.3 01:16:48 10° WNW 01:23:00 24° WSW 01:26:55 18° SW
STARLINK-1246 3.8 01:19:26 10° WNW 01:23:35 74° N 01:27:44 10° E
Cosmos 1812 Rocket 3.6 01:20:26 10° N 01:24:56 83° ENE 01:28:17 18° SSE
CZ-4C R/B 3.5 01:22:03 19° SSE 01:25:04 88° W 01:29:29 10° NNW
STARLINK-52 3.2 01:24:32 33° SSW 01:25:33 49° SSE 01:28:40 10° ENE
STARLINK-1232 3.6 01:22:11 10° WNW 01:26:17 60° SSW 01:30:22 10° SE
Cosmos 1300 3.5 01:23:02 10° NNW 01:26:33 35° W 01:28:05 25° SW
Cosmos 1626 2.9 01:25:23 24° SW 01:27:10 41° WNW 01:30:43 10° N
Cosmos 1356 Rocket 3.5 01:23:09 10° NNW 01:27:15 60° W 01:29:40 24° S
Meteor 2-5 Rocket 4.4 01:24:19 19° SW 01:28:01 44° WNW 01:33:24 10° N
STARLINK-1224 3.8 01:24:26 10° WNW 01:28:35 76° NNE 01:32:44 10° E
Nadezhda 1 Rocket 4.0 01:23:44 10° NNW 01:29:50 68° W 01:34:36 18° S
STARLINK-1208 3.6 01:27:11 10° WNW 01:31:15 57° SSW 01:35:19 10° SE
STARLINK-1225 3.8 01:29:24 10° WNW 01:33:34 77° NNE 01:37:43 10° E
Helios 1B rocket 4.0 01:32:39 10° N 01:36:07 26° WNW 01:38:48 14° WSW
STARLINK-1271 3.7 01:32:09 10° WNW 01:36:12 54° SSW 01:40:15 10° SE
STARLINK-1378 4.5 01:36:42 22° S 01:37:53 27° SE 01:40:59 10° E
STARLINK-1230 3.7 01:34:23 10° WNW 01:38:33 79° NNE 01:42:42 10° E
Cosmos 1602 Rocket 3.5 01:36:14 22° S 01:39:02 89° WNW 01:43:23 10° N
SL-14 R/B 4.3 01:37:09 20° SW 01:39:14 33° WNW 01:42:46 10° N
STARLINK-1329 4.5 01:38:25 22° S 01:39:39 28° SE 01:42:48 10° E
Cosmos-2242 3.6 01:36:02 10° N 01:40:14 54° ENE 01:44:24 10° SSE
STARLINK-1379 4.4 01:39:11 22° S 01:40:27 28° SE 01:43:36 10° E
STARLINK-1154 3.7 01:37:09 10° WNW 01:41:10 51° SSW 01:45:11 10° SE
STARLINK-1365 4.4 01:40:26 23° S 01:41:47 30° SE 01:45:01 10° E
STARLINK-1362 4.4 01:40:58 22° S 01:42:18 29° SE 01:45:29 10° E
STARLINK-1243 3.7 01:39:22 10° WNW 01:43:31 82° NNE 01:47:41 10° ESE
BREEZE M DEB (TANK) 2.7 01:44:00 27° SW 01:44:41 33° SSW 01:48:16 10° SE
STARLINK-1373 4.3 01:43:28 22° S 01:44:54 30° SE 01:48:07 10° E
STARLINK-1197 3.8 01:42:07 10° WNW 01:46:07 48° SSW 01:50:06 10° SE
STARLINK-1390 4.3 01:45:52 22° S 01:47:22 31° SE 01:50:37 10° E
Cosmos 2219 3.4 01:42:46 10° NW 01:48:17 53° WSW 01:53:28 11° S
Cosmos 1763 Rocket 4.2 01:44:25 14° S 01:48:29 45° ESE 01:53:19 10° NE
STARLINK-1236 3.7 01:44:22 10° WNW 01:48:32 84° NNE 01:52:42 10° ESE
Cosmos 1980 Rocket 4.1 01:45:05 10° SSE 01:49:05 20° E 01:53:07 10° NE
ATLAS CENTAUR R/B 2.0 01:46:35 10° WNW 01:49:09 43° SSW 01:54:25 10° SE
STARLINK-1198 3.9 01:47:08 10° WNW 01:51:07 45° SSW 01:55:04 10° SE
STARLINK-1320 3.8 01:50:50 24° S 01:51:59 32° SSE 01:54:49 10° E
ATLAS 2AS CENTAUR R/B 3.7 01:44:17 10° WSW 01:52:05 52° NNW 01:59:42 10° NE
STARLINK-1322 3.8 01:51:09 24° S 01:52:19 32° SSE 01:55:09 10° E
STARLINK-1324 3.8 01:51:29 24° S 01:52:39 32° SSE 01:55:30 10° E
STARLINK-1294 3.8 01:51:47 24° S 01:52:58 32° SSE 01:55:50 10° E
STARLINK-1261 3.8 01:52:09 24° S 01:53:20 32° SSE 01:56:11 10° E
STARLINK-1325 3.8 01:52:27 24° S 01:53:40 33° SSE 01:56:31 10° E
STARLINK-1333 3.8 01:52:48 24° SSW 01:54:00 33° SSE 01:56:52 10° E
STARLINK-1334 3.8 01:53:07 24° SSW 01:54:20 33° SSE 01:57:12 10° E
STARLINK-1326 3.8 01:53:27 23° SSW 01:54:41 33° SSE 01:57:33 10° E
STARLINK-1323 3.8 01:53:46 23° SSW 01:55:01 33° SSE 01:57:52 10° E
GP-B 3.3 01:50:44 10° N 01:55:11 70° E 01:59:19 12° S
STARLINK-1349 3.8 01:54:05 23° SSW 01:55:21 33° SSE 01:58:13 10° E
STARLINK-1336 3.8 01:54:25 23° SSW 01:55:41 34° SSE 01:58:33 10° E
STARLINK-1331 3.7 01:54:45 23° SSW 01:56:02 34° SSE 01:58:54 10° E
STARLINK-1199 3.9 01:52:06 10° WNW 01:56:03 42° SSW 01:59:58 10° SE
STARLINK-1344 3.7 01:55:05 23° SSW 01:56:22 34° SSE 01:59:15 10° E
STARLINK-60 3.1 01:53:33 11° W 01:56:33 75° NNW 01:59:47 10° ENE
STARLINK-1343 3.7 01:55:23 23° SSW 01:56:42 34° SSE 01:59:35 10° E
STARLINK-1346 3.7 01:55:40 23° SSW 01:57:01 35° SSE 01:59:57 10° E
STARLINK-1328 3.7 01:56:02 23° SSW 01:57:22 34° SSE 02:00:15 10° E
UNK 3.9 01:54:09 16° S 01:57:42 54° W 02:02:13 10° NNW
STARLINK-1354 3.7 01:56:22 23° SSW 01:57:42 35° SSE 02:00:36 10° E
STARLINK-1347 3.7 01:56:41 23° SSW 01:58:03 35° SSE 02:00:56 10° E
STARLINK-1357 3.7 01:57:01 23° SSW 01:58:22 35° SSE 02:01:16 10° E
STARLINK-1269 3.6 01:54:18 10° WNW 01:58:28 89° N 02:02:37 10° ESE
STARLINK-1335 3.7 01:57:22 23° SSW 01:58:45 35° SSE 02:01:39 10° E
Lacrosse 4 Rocket 2.0 01:54:29 10° NNW 01:58:50 63° NE 02:03:03 10° SE
STARLINK-1327 3.7 01:57:41 23° SSW 01:59:03 35° SSE 02:01:58 10° E
Starlink 7 placeholder 2.5 01:57:55 17° W 01:59:11 51° N 02:01:08 10° ENE
STARLINK-1340 3.7 01:57:59 23° SSW 01:59:23 36° SSE 02:02:17 10° E
STARLINK-1356 3.7 01:58:18 23° SSW 01:59:43 36° SSE 02:02:37 10° E
STARLINK-1345 3.7 01:58:38 23° SSW 02:00:04 36° SSE 02:02:58 10° E
STARLINK-1355 3.6 01:58:58 22° SSW 02:00:24 36° SSE 02:03:18 10° E
Cosmos 2297 Rocket 2.4 01:55:06 10° NW 02:00:35 52° WSW 02:06:01 10° S
STARLINK-1321 3.6 01:59:18 22° SSW 02:00:45 36° SSE 02:03:39 10° E
STARLINK-1210 4.0 01:57:07 10° WNW 02:01:01 40° SSW 02:04:53 10° SE
STARLINK-1358 3.6 01:59:37 22° SSW 02:01:04 36° SSE 02:03:59 10° E
STARLINK-1332 3.6 01:59:59 22° SSW 02:01:26 37° SSE 02:04:22 10° E
STARLINK-1348 3.6 02:00:16 22° SSW 02:01:45 37° SSE 02:04:40 10° E
Cosmos 1437 4.3 02:00:18 15° WSW 02:01:49 22° WNW 02:04:16 10° NNW
STARLINK-1330 3.6 02:00:35 22° SSW 02:02:05 37° SSE 02:05:00 10° E
STARLINK-1363 3.6 02:00:56 22° SSW 02:02:26 37° SSE 02:05:22 10° E
STARLINK-1337 3.6 02:01:15 22° SSW 02:02:46 37° SSE 02:05:42 10° E
STARLINK-1342 3.6 02:01:33 22° SSW 02:03:05 38° SSE 02:06:01 10° E
STARLINK-1364 3.6 02:01:53 22° SSW 02:03:26 38° SSE 02:06:22 10° E
STARLINK-1200 3.6 01:59:18 10° WNW 02:03:28 88° SSW 02:07:38 10° ESE
STARLINK-1376 3.6 02:02:13 22° SSW 02:03:46 38° SSE 02:06:43 10° E
SL-16 R/B 2.8 01:58:27 13° S 02:03:54 53° W 02:09:57 10° NNW
STARLINK-1360 3.6 02:02:33 22° SSW 02:04:06 38° SSE 02:07:03 10° E
STARLINK-1361 3.6 02:02:53 22° SSW 02:04:27 38° SSE 02:07:23 10° E
STARLINK-1367 3.6 02:03:08 21° SSW 02:04:45 39° SSE 02:07:44 10° E
Alouette 2 Rocket 4.1 01:58:20 10° NNW 02:05:00 70° W 02:09:15 11° S
STARLINK-1366 3.5 02:03:32 21° SSW 02:05:08 39° SSE 02:08:05 10° E
STARLINK-1219 4.1 02:02:06 10° WNW 02:05:57 37° SW 02:09:47 10° SSE
Cosmos 2082 3.7 02:00:27 10° NNW 02:06:10 84° WSW 02:11:48 10° SSE
Cosmos 1455 2.3 02:04:14 10° NNW 02:07:55 55° W 02:10:51 15° S
Cosmos 1745 Rocket 4.4 02:03:19 15° SW 02:08:09 48° WNW 02:14:06 10° N
COSMOS 2455 3.9 02:02:47 10° WSW 02:08:22 39° NW 02:14:01 10° NNE
STARLINK-1192 3.5 02:04:18 10° WNW 02:08:27 85° SSW 02:12:37 10° ESE
Cosmos 1328 4.1 02:06:12 13° S 02:09:42 67° E 02:13:41 10° NNE
ARIANE 5 R/B 3.9 02:05:55 10° NNE 02:10:29 33° E 02:14:58 10° SSE
STARLINK-1211 4.2 02:07:07 10° W 02:10:55 35° SW 02:14:42 10° SSE
Cosmos 2084 3.7 02:08:06 14° SW 02:11:52 70° NW 02:16:21 10° NE
Cosmos 2263 Rocket 3.9 02:07:36 10° NNW 02:12:49 37° NE 02:17:58 10° ESE
STARLINK-1244 3.5 02:09:16 10° WNW 02:13:26 82° SSW 02:17:35 10° ESE
Cosmos 192 4.5 02:11:06 15° SW 02:15:08 69° WNW 02:20:07 10° NNE
AQUA 3.8 02:10:50 10° NNE 02:15:38 86° WNW 02:19:54 13° SSW
ADEOS II 2.6 02:10:31 10° NNE 02:15:42 56° E 02:20:52 10° S
STARLINK-1245 4.3 02:12:07 10° W 02:15:52 33° SW 02:19:35 10° SSE
Cosmos 1898 Rocket 3.7 02:10:49 10° NNW 02:16:02 53° WSW 02:21:10 10° S
Cosmos 2181 Rocket 4.1 02:10:36 10° NNW 02:17:01 75° W 02:23:26 10° S
SL-4 R/B 2.4 02:12:17 10° W 02:17:09 89° N 02:21:49 10° E
Cosmos 1758 Rocket 3.5 02:14:07 14° SSW 02:17:46 75° WNW 02:22:11 10° N
STARLINK-1138 3.5 02:14:14 10° WNW 02:18:23 79° SSW 02:22:32 10° ESE
H-2A R/B 3.6 02:14:35 10° SE 02:18:37 38° ENE 02:22:46 10° N
USA 81 4.4 02:15:45 14° SSW 02:20:09 54° W 02:25:22 10° N
STARLINK-1233 4.3 02:17:08 10° W 02:20:48 31° SW 02:24:28 10° SSE
Cosmos 468 Rocket 4.0 02:16:22 14° SSW 02:20:48 88° WNW 02:25:57 10° NNE
Cosmos 1937 Rocket 3.6 02:17:55 10° NNW 02:23:06 62° WSW 02:28:17 10° S
SJ 16-02 2.1 02:19:08 10° NW 02:23:09 35° WSW 02:27:00 11° SSW
STARLINK-1143 3.5 02:19:13 10° WNW 02:23:21 75° SSW 02:27:29 10° ESE
CZ-2D R/B 2.4 02:18:46 10° N 02:23:57 58° WNW 02:28:37 12° SW
STARLINK-29 3.0 02:22:08 10° W 02:25:20 78° NNW 02:28:33 10° ENE
STARLINK-1204 4.4 02:22:09 10° W 02:25:45 29° SW 02:29:21 10° SSE
ERBS 2.9 02:22:36 10° NW 02:25:55 60° NNE 02:29:13 10° ESE
Resurs 1-4 Rocket 2.5 02:21:35 10° N 02:26:45 54° WNW 02:31:32 12° SW
STARLINK-1203 3.6 02:23:30 10° WNW 02:27:43 72° SSW 02:31:54 10° ESE
STARLINK-1241 3.5 02:24:12 10° WNW 02:28:21 72° SSW 02:32:28 10° ESE
Cosmos 1570 Rocket 4.4 02:25:35 10° S 02:30:50 65° ESE 02:36:06 10° NNE
STARLINK-1239 3.5 02:29:11 10° WNW 02:33:18 68° SSW 02:37:25 10° ESE
Cosmos 1953 Rocket 3.6 02:29:58 10° S 02:34:26 88° W 02:38:54 10° N
Cosmos 2227 Rocket 2.9 02:31:19 10° NW 02:36:21 33° WSW 02:41:21 10° SSW
Cosmos 2208 Rocket 4.4 02:31:19 10° S 02:36:27 61° ESE 02:41:43 10° NNE
IDEFIX/ARIANE 42P 4.2 02:32:39 10° NNE 02:37:21 31° E 02:42:00 10° SSE
STARLINK-1240 3.6 02:34:11 10° WNW 02:38:18 65° SSW 02:42:24 10° SE
Cosmos 1697 Rocket 2.8 02:33:34 10° SSW 02:39:09 78° ESE 02:44:51 10° NNE
Cosmos 1842 Rocket 4.1 02:35:10 10° N 02:39:39 62° ENE 02:44:05 10° SSE
STARLINK-1338 3.3 02:37:01 11° SW 02:40:21 63° SSE 02:43:53 10° ENE
Cosmos 1400 Rocket 2.8 02:37:36 10° NNW 02:41:44 74° W 02:45:51 10° S
STARLINK-1216 3.6 02:39:09 10° WNW 02:43:15 62° SSW 02:47:21 10° SE
ATLAS CENTAUR R/B 3.4 02:40:11 10° WNW 02:43:27 21° NNW 02:46:34 10° NNE
Cosmos 1814 Rocket 4.4 02:38:29 10° S 02:43:45 63° ESE 02:49:02 10° NNE
STARLINK-1371 3.3 02:41:38 10° WSW 02:45:08 67° SSE 02:48:43 10° ENE
Cosmos 1125 Rocket 4.4 02:40:37 10° NNW 02:45:44 53° ENE 02:50:49 10° SE
NPP 4.2 02:41:01 10° N 02:46:08 46° WNW 02:51:15 10° SW
Cosmos 1703 3.8 02:42:56 11° SSW 02:46:37 46° WNW 02:50:27 10° N
STARLINK-1341 3.3 02:43:56 10° WSW 02:47:28 69° SSE 02:51:01 10° ENE
CZ-4B R/B 4.1 02:43:14 10° N 02:48:10 48° WNW 02:53:11 10° SW
STARLINK-1237 3.7 02:44:08 10° WNW 02:48:13 58° SSW 02:52:18 10° SE
SL-16 R/B 4.5 02:45:29 10° SE 02:49:19 19° E 02:53:11 10° ENE
STARLINK-1374 3.2 02:46:21 10° WSW 02:49:54 70° SSE 02:53:28 10° ENE
Cosmos 2285 Rocket 4.3 02:43:47 10° NNW 02:49:55 50° WSW 02:55:58 10° S
FALCON 9 DEB 3.2 02:47:22 10° WSW 02:50:49 80° NNW 02:54:18 10° ENE
SL-08 R/B 3.3 02:46:56 10° S 02:51:35 62° WSW 02:56:12 10° NNW
STARLINK-1339 3.2 02:48:52 10° WSW 02:52:27 72° SSE 02:56:02 10° ENE
Cosmos 540 Rocket 3.6 02:47:59 10° SSW 02:53:07 78° ESE 02:58:17 10° NNE
STARLINK-1202 3.7 02:49:08 10° WNW 02:53:12 55° SSW 02:57:15 10° SE
STARLINK-1377 3.2 02:51:20 10° WSW 02:54:55 74° SSE 02:58:31 10° ENE
Cosmos 1656 4.2 02:50:03 10° SW 02:55:34 53° NW 03:01:05 10° NNE
STARLINK-1353 3.2 02:53:49 10° WSW 02:57:24 76° SSE 03:01:00 10° ENE
CZ-2C R/B 4.2 02:54:23 10° NNE 02:57:47 33° E 03:01:11 10° SSE
Landsat 5 4.1 02:55:13 10° SSE 02:59:42 70° ENE 03:04:13 10° N
STARLINK-1375 3.2 02:56:13 10° WSW 02:59:48 78° SSE 03:03:24 10° ENE
COBE Rocket 4.0 02:55:48 10° S 03:00:45 73° WSW 03:05:53 10° NNW
CZ-4C R/B 2.3 02:55:50 10° SW 03:00:58 84° SE 03:07:13 10° NE
Uosat 12 SS-18 rocket 4.2 02:56:54 10° NW 03:01:03 49° SW 03:05:22 10° SSE
CZ-2D R/B 4.0 02:57:12 10° NNE 03:01:18 59° ESE 03:05:27 10° S
STARLINK-52 3.3 02:58:28 10° W 03:01:40 65° N 03:04:52 10° ENE
STARLINK-1350 3.2 02:58:49 10° WSW 03:02:25 80° SSE 03:06:02 10° ENE
STARLINK-1246 3.8 02:59:06 10° WNW 03:03:07 49° SSW 03:07:07 10° SE
Cosmos 1315 Rocket 3.0 03:00:27 10° N 03:04:23 75° ENE 03:08:18 10° SSE
STARLINK-1352 3.2 03:01:21 10° WSW 03:04:57 82° SSE 03:08:35 10° ENE
NOSS 7 (E) 4.3 03:02:13 10° SW 03:05:39 82° NW 03:08:44 10° NE
Cosmos 372 Rocket 4.1 03:02:01 10° NNW 03:07:03 57° WSW 03:12:04 10° S
STARLINK-1368 3.2 03:03:54 10° WSW 03:07:30 84° SSE 03:11:08 10° ENE
STARLINK-1224 3.9 03:04:06 10° WNW 03:08:04 46° SSW 03:12:03 10° SE
USA 229 DEB 4.2 03:02:33 10° NW 03:09:45 76° NE 03:17:20 10° SE
USA 229 4.2 03:02:40 10° NW 03:09:51 76° NE 03:17:25 10° SE
STARLINK-1369 3.3 03:06:28 10° WSW 03:10:04 86° SSE 03:13:42 10° ENE
Nadezhda 3 Rocket 4.1 03:05:08 10° NNW 03:11:26 82° W 03:17:45 10° S
